2024-168C

Last updated on Tue Oct 08 2024 00:02:04 GMT+0000 (Coordinated Universal Time)

1 61187U 24168C 24281.21096687 -.00000056 00000+0 00000+0 0 9990 2 61187 54.9863 323.6011 0066460 180.0270 212.6934 1.84329646 343
UTC large
Height (km)
Speed (km/s)
/
Latitude / Longitude
Inclination (degrees)
Orbital Period (minutes)
Azimuth
Elevation
Range (km)
Doppler Factor

Next 0 passes for location: London (51.5072 / 0.1276)

Sorry there are no passes over London.